Terug naar catalogus

STARLINK-32376

ActiefCommunicatieVLEO
NORAD 61707·PAYLOAD·🇺🇸 United States

Gelanceerd Oct 30, 2024 vanaf Cape Canaveral Space Force Station

Loading…

Volgende Passages (komende 24 uur)

TLE

VersSource: CelesTrak SupGP

Epoch: Sep 15, 2026, 03:36 UTC

1 61707C 24196A   26258.15048611  .00012192  00000+0  36017-3 0  2584
2 61707  53.1573 298.4168 0001191  92.9248 309.7923 15.34388402    13

Volg STARLINK-32376 in realtime met AllMySat

Download on the App Store